Temperature
17 17 17 17 17 17 17 17 17 17 17 17 17 17 17 17 17 17 17 17 17 17 16 16 16 16 16 16 16 16 16 16 16 16 16 16 16 16 16 15 15 15 15
17 17 17 17 17 17 17 17 17 17 17 17 17 17 17 17 16 16 16 17 17 17 17 17 16 16 16 16 16 16 16 16 16 16 16 16 16 16 16 15 15 15 15
17 17 17 17 17 17 17 17 17 17 17 17 17 17 17 17 16 16 16 16 16 17 17 17 16 16 16 16 16 16 16 16 16 16 16 16 16 16 16 15 15 15 15
17 17 17 17 17 17 17 17 17 17 17 17 17 17 17 17 16 16 16 16 16 16 16 17 17 16 16 16 16 16 16 16 16 16 16 16 16 16 16 16 15 15 15
18 17 17 17 17 17 17 17 17 17 17 17 17 17 17 17 16 17 16 16 16 16 16 16 16 16 16 16 16 16 16 16 16 16 16 16 16 16 15 15 15 15 15
18 17 17 17 17 17 17 17 17 17 17 17 17 17 17 17 17 17 16 16 16 16 16 16 16 16 16 16 16 16 16 16 16 16 16 15 15 15 15 15 15 15 15
17 17 17 17 17 17 17 17 17 17 17 17 17 17 17 17 17 17 17 17 17 16 16 16 16 16 16 16 16 16 16 16 16 16 16 15 15 15 15 15 15 15 15
17 17 17 17 17 17 17 17 17 17 17 17 17 18 18 18 17 17 17 17 17 17 16 16 16 16 16 16 16 16 16 16 16 15 15 15 15 15 15 15 15 15 15
18 17 17 17 17 17 17 17 17 17 17 17 17 18 18 18 18 18 17 17 17 17 17 17 16 16 16 16 16 16 16 16 16 15 15 15 15 15 15 15 15 15 15
18 17 17 17 17 17 17 17 17 17 17 17 17 17 17 18 18 18 18 18 17 17 17 17 17 16 16 16 16 16 16 16 16 16 15 15 15 15 15 15 15 15 15
18 17 17 17 17 17 17 17 17 17 17 17 17 17 17 17 18 18 18 18 18 17 17 17 17 17 16 16 16 16 16 16 16 16 15 15 15 15 15 15 15 15 15
17 17 17 17 17 17 17 17 17 17 17 17 17 17 17 18 18 18 18 18 18 18 17 17 17 17 16 16 16 16 16 16 16 16 15 15 15 15 15 15 15 15 15
17 17 17 17 17 17 17 17 17 17 16 16 16 17 17 17 18 18 18 18 18 18 17 17 17 17 17 16 16 16 16 16 16 16 15 15 15 15 15 15 15 15 15
17 17 17 17 17 17 17 17 17 16 16 16 16 16 17 17 17 17 18 18 18 18 18 18 17 17 17 16 16 16 16 16 16 16 16 15 15 15 15 15 15 15 15
17 17 17 17 17 17 17 17 17 16 16 16 16 16 16 17 17 17 17 17 18 18 18 18 18 17 17 16 16 16 16 16 16 16 16 16 15 15 15 15 15 15 15
17 17 17 17 17 17 17 16 16 16 16 16 16 16 16 17 17 17 17 17 17 18 18 18 18 17 17 17 16 16 16 16 16 16 16 16 16 15 15 15 15 15 15
17 17 17 17 16 16 16 16 16 16 16 16 16 16 16 16 16 16 16 16 17 17 17 18 17 17 16 16 16 16 16 16 16 16 16 16 16 15 15 15 15 15 15
17 16 17 16 16 16 16 16 16 16 16 16 16 16 16 16 16 16 16 16 16 16 16 17 17 17 16 16 16 16 16 16 16 16 16 16 16 15 15 15 15 15 15
17 16 16 16 16 16 16 16 16 16 16 16 16 16 16 16 16 16 16 16 16 16 16 16 16 16 16 16 16 16 16 16 16 16 16 16 16 15 15 15 15 15 15
17 17 17 16 16 16 16 16 16 16 16 16 16 16 16 16 16 16 16 16 16 16 16 16 16 16 16 16 15 16 16 16 16 16 16 15 15 15 15 15 15 15 15
17 16 16 16 16 16 16 16 16 16 16 16 16 16 16 16 16 16 16 16 15 15 16 16 16 16 16 16 16 16 16 16 16 16 15 15 15 15 15 15 15 15 15
16 16 16 16 16 16 16 16 16 16 16 16 16 16 16 16 16 16 16 16 15 15 15 15 16 16 16 15 15 15 16 16 16 16 15 15 15 15 15 14 15 14 14
16 16 16 16 16 16 16 16 16 16 16 16 16 16 16 16 16 15 15 15 15 15 15 15 15 15 15 15 15 15 15 15 15 15 15 15 15 15 15 15 14 14 14
16 16 16 16 16 16 16 16 16 16 15 15 15 15 15 15 15 15 15 15 15 15 15 15 15 14 14 14 14 14 14 14 14 14 14 14 15 14 14 14 14 13 13
16 16 16 16 16 16 16 16 16 16 15 15 15 15 15 15 15 15 15 14 14 14 15 15 14 14 14 14 14 14 14 14 14 14 14 13 14 14 14 14 13 13 13
16 16 16 16 16 16 16 16 16 15 15 15 15 15 15 15 15 15 15 14 14 14 14 14 14 14 14 14 14 13 13 13 14 14 14 13 13 13 13 13 13 12 12
Wind_Speed
7 7 6 6 6 7 7 5 5 6 5 5 5 6 5 5 6 7 10 10 9 9 8 8 8 8 8 8 8 8 8 7 7 7 7 7 7 7 6 6 6 5 5
7 7 7 6 6 6 5 5 6 5 4 5 5 5 5 6 6 6 8 10 9 8 8 8 8 8 8 7 7 7 7 7 7 7 7 7 7 7 7 6 6 6 5
8 7 6 6 6 6 6 5 5 5 5 5 5 5 5 4 6 5 5 6 9 10 8 7 7 7 7 7 8 7 7 7 7 7 7 7 7 7 7 7 7 6 6
9 7 6 6 7 6 6 5 4 4 4 4 4 4 4 5 5 5 5 5 5 8 10 9 7 7 7 7 8 8 8 8 8 8 8 8 7 7 7 7 7 7 7
10 8 6 6 7 6 5 5 5 4 4 4 4 4 4 4 5 5 4 5 5 4 6 10 9 8 8 8 8 8 8 9 9 9 9 8 8 8 8 8 8 8 8
11 9 7 7 8 6 5 4 4 4 3 4 4 4 3 4 4 4 5 5 5 6 5 6 8 9 9 8 8 8 8 9 9 10 10 9 9 9 9 9 9 8 8
11 9 7 8 7 6 6 6 5 6 5 4 4 4 4 4 4 4 5 4 5 6 5 5 6 5 8 10 9 8 8 8 9 9 9 9 9 9 9 9 9 8 8
11 11 9 8 8 6 7 7 6 5 5 5 5 4 4 5 5 6 6 6 6 6 6 7 6 5 5 6 8 10 9 8 8 9 9 9 9 9 9 9 9 9 9
12 11 11 9 8 9 8 8 8 8 6 6 5 4 4 3 4 5 6 6 5 5 6 6 7 6 7 6 7 11 10 9 8 9 9 10 10 10 10 10 9 10 10
13 13 12 11 10 9 8 9 9 8 7 7 6 5 5 2 3 3 6 6 7 7 6 5 6 7 8 7 6 6 10 10 10 9 9 9 10 10 10 10 10 10 11
12 13 13 11 10 10 10 9 8 9 8 8 6 6 6 5 6 5 3 4 6 7 7 6 6 6 7 7 7 9 11 11 11 10 9 9 10 10 10 10 10 10 11
10 12 13 12 11 10 10 10 10 11 9 8 7 7 7 6 6 5 5 5 5 5 5 5 6 7 7 8 9 9 11 11 11 11 11 10 10 10 10 10 10 10 10
10 12 12 11 11 10 10 10 10 10 10 9 9 8 8 7 6 5 5 5 4 4 5 6 6 7 7 7 7 10 11 12 13 13 12 11 11 11 11 11 12 11 11
10 11 12 11 11 11 11 11 10 11 9 10 11 9 7 8 6 6 6 5 5 6 6 6 5 6 7 7 7 11 10 14 14 14 13 13 12 12 12 12 13 13 13
10 12 12 12 12 12 12 11 10 10 10 10 10 11 10 8 7 7 6 6 6 6 6 6 5 5 6 6 6 9 9 12 14 14 14 14 14 13 13 13 14 14 14
11 12 12 12 12 12 12 11 10 11 11 10 9 9 9 8 7 7 7 7 7 7 6 4 4 5 4 6 8 9 9 10 14 15 15 15 15 15 14 14 15 15 15
12 13 12 12 12 12 12 12 12 11 12 12 11 11 11 9 7 7 7 7 7 7 7 7 5 4 5 7 5 8 10 10 11 17 16 16 15 15 15 15 15 15 15
12 12 12 12 12 13 13 13 13 13 13 13 13 11 11 10 10 9 8 8 8 7 8 9 6 5 6 7 6 7 9 10 10 13 16 16 16 15 15 15 15 15 15
12 12 12 13 13 13 13 13 13 13 13 13 12 12 11 11 11 10 9 9 8 8 8 8 8 5 6 6 6 8 9 7 10 10 14 16 16 16 16 15 15 15 14
12 13 13 13 13 13 13 13 13 12 12 12 11 11 11 11 11 11 10 9 8 8 8 8 8 7 7 6 6 8 8 8 8 9 8 9 12 15 17 17 16 15 15
12 12 11 12 12 11 12 13 12 12 12 11 10 10 11 10 9 9 8 9 9 9 8 8 8 7 7 6 7 7 8 7 8 8 8 8 9 10 12 16 18 16 15
10 11 11 12 12 10 9 10 11 11 11 10 10 10 10 10 11 10 9 7 8 9 9 8 8 8 7 7 6 7 7 8 8 6 8 9 8 9 9 11 11 14 14
10 10 10 10 10 9 10 11 11 10 10 10 10 9 9 10 11 11 11 10 10 10 9 9 10 9 7 7 7 9 8 9 9 7 6 9 9 9 9 8 8 10 12
8 8 8 9 8 8 11 12 12 10 9 9 10 10 10 8 9 9 9 10 10 10 10 10 10 9 8 6 7 9 8 9 10 9 8 10 9 9 8 7 8 11 12
7 7 7 7 7 7 11 12 11 8 8 9 9 9 9 9 7 7 9 9 10 9 10 10 9 7 4 3 5 7 8 9 10 8 6 8 9 9 8 9 7 13 14
6 6 6 6 6 6 8 11 12 8 8 8 7 7 7 7 6 8 9 9 10 9 8 7 8 8 8 8 9 9 9 9 9 8 4 5 8 7 8 7 6 6 9
Wind_Direction
155 148 145 151 157 149 155 156 143 134 134 134 132 127 123 115 120 119 126 142 148 151 150 150 152 153 152 152 154 156 156 156 157 158 158 159 160 160 160 163 163 166 164
156 156 157 160 158 159 154 159 147 148 146 136 139 138 144 134 129 134 137 145 155 160 160 159 162 163 165 166 167 172 171 170 170 171 172 174 176 177 178 180 181 181 181
164 168 164 168 161 155 152 161 152 156 159 154 145 148 147 141 134 140 145 149 156 165 171 173 175 176 179 183 182 183 184 183 183 183 186 187 188 191 192 195 195 195 197
176 182 174 172 162 168 169 162 174 172 166 163 157 160 145 147 145 156 162 167 168 163 170 178 186 189 194 197 195 195 196 198 199 199 200 200 200 202 204 202 204 206 209
185 190 182 167 174 178 180 185 167 185 173 173 169 162 159 156 159 169 170 176 177 182 169 165 184 196 204 209 207 206 206 209 209 209 208 208 209 211 213 215 216 218 221
190 193 185 177 188 187 184 188 164 185 190 195 196 160 172 165 180 175 194 182 184 194 193 177 184 191 196 206 211 209 209 212 212 211 212 213 212 214 217 219 220 222 225
191 197 196 179 195 193 192 191 186 186 193 195 192 181 187 196 195 197 206 201 193 196 193 199 209 196 183 190 200 205 208 208 209 210 212 213 213 214 215 217 220 223 228
196 198 204 197 196 196 197 198 197 206 197 194 209 201 199 197 208 207 199 206 210 200 201 203 203 209 220 189 180 196 207 208 207 208 210 211 214 214 215 217 220 223 228
202 207 203 207 201 207 202 201 203 211 210 205 219 226 221 218 194 189 207 209 211 219 218 203 205 203 215 210 193 192 200 207 211 214 214 215 216 217 218 220 223 226 230
207 207 207 207 206 213 207 208 209 215 217 215 211 236 261 294 244 196 197 197 206 215 224 226 212 205 213 214 204 194 194 206 212 217 220 220 221 223 225 227 230 234 237
211 211 209 209 210 215 213 217 210 219 220 223 218 215 221 228 246 251 222 206 208 211 210 218 223 219 212 218 212 200 194 206 212 218 224 226 227 227 228 231 236 240 243
208 213 212 212 212 214 212 214 214 216 226 229 231 227 222 221 231 238 240 231 224 216 210 221 225 223 219 219 218 174 193 208 215 221 226 228 228 229 232 236 240 243 247
208 210 213 214 216 214 212 213 211 219 219 221 226 230 233 234 236 242 250 248 243 228 210 225 222 227 227 224 210 184 206 212 218 222 226 229 233 237 240 242 243 246 249
213 207 208 213 216 215 215 210 214 216 217 220 226 227 233 236 232 234 243 250 247 239 224 227 213 219 230 228 203 196 217 208 217 223 228 232 237 240 243 245 247 249 252
215 211 210 212 214 216 218 211 217 216 214 218 222 219 228 231 229 234 239 245 251 253 239 211 222 210 222 228 192 221 227 204 213 223 229 233 237 241 244 246 249 252 254
211 210 208 211 213 214 216 215 215 214 215 218 224 226 225 228 220 227 234 238 246 258 264 249 225 224 216 237 200 227 234 200 214 222 228 232 236 240 244 248 251 253 254
208 210 210 213 214 215 216 215 218 213 216 218 219 219 220 227 222 226 229 233 238 245 253 257 247 226 213 247 221 230 235 229 224 212 221 229 235 240 244 247 250 252 254
209 211 211 213 216 217 217 216 218 216 217 220 220 219 220 218 220 231 231 233 235 242 250 256 255 237 222 232 233 239 241 236 244 205 210 224 231 237 241 244 245 248 252
209 211 211 214 216 217 216 217 218 219 220 221 219 218 220 219 220 223 226 232 232 233 240 250 249 243 236 232 232 238 244 248 253 228 207 218 225 232 236 238 241 244 247
209 210 213 215 216 217 217 216 216 217 219 219 218 218 220 220 222 223 223 228 233 237 234 244 248 239 232 224 233 244 243 229 244 253 238 228 221 224 230 234 237 240 243
210 209 212 215 215 216 218 216 213 214 216 218 219 220 222 222 227 227 230 224 224 230 234 238 243 243 237 229 237 243 250 252 243 246 251 246 229 230 227 229 230 233 237
211 209 212 215 215 218 200 201 215 217 215 217 218 220 221 215 216 215 233 243 240 232 238 243 246 246 247 244 249 255 258 258 258 239 246 256 253 253 247 247 213 211 226
208 209 211 213 214 211 183 188 203 220 219 219 219 220 225 219 207 218 214 218 232 239 243 247 251 255 251 245 252 252 253 263 270 270 258 263 258 257 258 255 189 205 223
207 210 213 214 215 206 179 186 193 214 225 224 223 222 223 224 218 216 219 220 226 226 223 229 244 252 257 263 250 257 268 260 259 255 252 265 269 266 267 262 202 210 225
208 208 211 212 215 205 180 184 188 210 219 225 223 221 221 222 200 193 217 227 233 234 223 223 236 250 274 273 265 258 256 258 262 258 236 253 269 275 273 267 233 204 221
209 207 206 208 211 210 182 183 190 210 215 216 213 214 211 217 186 185 215 227 234 239 239 219 218 228 235 230 224 239 253 258 265 266 248 249 271 280 277 267 265 248 238
Height
1565 1566 1568 1569 1572 1573 1575 1576 1578 1578 1579 1580 1582 1582 1584 1585 1586 1587 1586 1586 1587 1588 1589 1589 1590 1591 1592 1593 1594 1595 1595 1596 1596 1597 1598 1598 1599 1599 1600 1600 1601 1601 1601
1565 1566 1568 1570 1572 1574 1576 1577 1578 1579 1580 1581 1582 1583 1584 1585 1586 1587 1587 1587 1587 1588 1589 1590 1591 1592 1592 1593 1594 1595 1595 1596 1597 1597 1598 1598 1599 1599 1600 1600 1601 1601 1602
1564 1566 1569 1570 1572 1574 1575 1577 1578 1580 1580 1582 1583 1584 1585 1586 1586 1587 1588 1589 1589 1589 1589 1590 1591 1592 1592 1593 1594 1595 1595 1596 1596 1597 1597 1598 1598 1599 1599 1600 1600 1601 1601
1563 1566 1568 1570 1572 1574 1575 1577 1579 1580 1581 1582 1583 1584 1585 1585 1586 1587 1588 1589 1590 1590 1590 1590 1591 1591 1592 1593 1593 1594 1595 1595 1596 1596 1597 1597 1598 1598 1599 1599 1599 1600 1600
1562 1565 1568 1570 1571 1574 1575 1577 1578 1580 1581 1582 1583 1584 1585 1586 1586 1587 1588 1589 1589 1590 1591 1590 1590 1591 1591 1592 1593 1593 1594 1594 1595 1595 1596 1596 1596 1597 1597 1598 1598 1599 1599
1561 1564 1566 1568 1571 1573 1574 1576 1577 1579 1580 1582 1584 1584 1585 1586 1587 1587 1588 1589 1589 1589 1590 1590 1590 1590 1590 1591 1592 1592 1593 1593 1594 1594 1594 1595 1595 1596 1596 1596 1597 1597 1597
1560 1562 1566 1567 1569 1572 1573 1575 1577 1578 1579 1581 1583 1584 1584 1585 1586 1586 1587 1588 1589 1589 1589 1589 1590 1590 1590 1590 1590 1591 1591 1592 1592 1593 1593 1593 1594 1594 1594 1594 1595 1595 1596
1558 1561 1563 1565 1567 1569 1571 1573 1575 1577 1579 1580 1581 1582 1583 1585 1584 1585 1586 1587 1588 1588 1588 1588 1588 1588 1590 1590 1589 1590 1590 1590 1591 1591 1591 1591 1592 1592 1592 1592 1593 1593 1593
1555 1558 1560 1563 1565 1567 1569 1571 1573 1575 1577 1578 1579 1581 1582 1582 1583 1584 1584 1585 1586 1587 1587 1588 1587 1587 1587 1588 1588 1588 1588 1589 1589 1589 1589 1589 1590 1590 1590 1590 1591 1591 1591
1552 1555 1557 1560 1562 1565 1567 1569 1571 1573 1574 1576 1577 1578 1580 1580 1581 1582 1583 1583 1584 1584 1585 1586 1586 1586 1586 1586 1586 1586 1586 1587 1587 1587 1587 1587 1587 1588 1588 1588 1588 1589 1589
1548 1551 1554 1556 1559 1561 1563 1566 1567 1569 1571 1573 1575 1576 1578 1579 1580 1580 1580 1581 1582 1583 1583 1584 1584 1585 1584 1584 1584 1584 1584 1585 1585 1585 1585 1585 1585 1586 1586 1586 1586 1586 1586
1545 1547 1550 1553 1555 1557 1559 1562 1564 1566 1568 1570 1572 1574 1575 1577 1577 1578 1578 1579 1580 1580 1581 1581 1582 1582 1582 1582 1582 1582 1582 1582 1582 1583 1583 1583 1583 1583 1583 1583 1583 1583 1583
1540 1543 1546 1548 1551 1553 1556 1558 1560 1562 1564 1566 1568 1570 1572 1573 1575 1576 1576 1576 1577 1578 1578 1579 1579 1579 1580 1580 1580 1579 1579 1580 1580 1580 1580 1581 1581 1581 1581 1581 1581 1580 1580
1536 1539 1541 1544 1547 1549 1552 1554 1556 1558 1560 1562 1564 1566 1568 1570 1571 1572 1573 1574 1574 1575 1575 1576 1576 1577 1577 1578 1577 1576 1577 1577 1577 1577 1578 1578 1578 1578 1578 1578 1578 1577 1577
1531 1534 1537 1539 1542 1545 1547 1549 1551 1553 1556 1558 1560 1562 1564 1566 1567 1569 1570 1571 1572 1572 1572 1573 1574 1574 1574 1575 1574 1574 1574 1574 1574 1575 1575 1575 1575 1575 1575 1575 1574 1574 1574
1526 1529 1532 1535 1537 1540 1542 1544 1547 1549 1551 1554 1556 1558 1560 1562 1563 1565 1566 1567 1568 1569 1569 1570 1570 1571 1571 1572 1571 1571 1572 1571 1571 1571 1571 1572 1572 1572 1572 1571 1571 1571 1570
1521 1524 1528 1531 1533 1535 1537 1539 1542 1545 1547 1550 1552 1554 1555 1557 1559 1561 1562 1564 1565 1566 1566 1567 1568 1568 1567 1568 1568 1568 1568 1568 1568 1568 1568 1568 1568 1568 1568 1567 1567 1566 1566
1517 1520 1523 1526 1528 1531 1533 1535 1538 1540 1543 1545 1547 1549 1551 1553 1554 1556 1558 1559 1561 1562 1563 1563 1564 1564 1563 1564 1564 1564 1565 1565 1566 1565 1564 1564 1564 1564 1563 1563 1562 1562 1561
1513 1516 1519 1521 1524 1526 1529 1531 1533 1536 1538 1540 1543 1544 1546 1548 1550 1552 1553 1555 1557 1558 1558 1559 1560 1560 1560 1560 1560 1560 1561 1560 1561 1561 1559 1559 1559 1558 1558 1558 1557 1556 1556
1509 1512 1514 1517 1519 1522 1524 1526 1529 1531 1534 1536 1538 1539 1541 1543 1545 1547 1548 1550 1552 1553 1554 1555 1556 1556 1556 1556 1556 1557 1557 1557 1556 1557 1556 1555 1553 1553 1552 1552 1551 1550 1550
1506 1508 1510 1513 1515 1518 1520 1522 1524 1527 1529 1531 1533 1534 1536 1538 1540 1542 1544 1546 1547 1548 1550 1551 1551 1552 1553 1553 1553 1553 1553 1553 1552 1552 1552 1551 1550 1548 1547 1546 1545 1544 1544
1502 1504 1506 1509 1511 1513 1515 1517 1519 1522 1524 1526 1528 1529 1532 1533 1535 1537 1539 1541 1542 1544 1545 1546 1547 1547 1548 1549 1549 1549 1549 1549 1549 1548 1547 1546 1546 1544 1543 1542 1540 1538 1538
1499 1501 1503 1505 1506 1509 1510 1512 1515 1517 1519 1521 1522 1525 1527 1529 1530 1532 1534 1535 1536 1538 1539 1540 1541 1542 1543 1544 1544 1544 1544 1544 1543 1543 1542 1541 1540 1539 1538 1536 1534 1533 1531
1495 1497 1499 1501 1503 1505 1506 1509 1511 1513 1514 1516 1518 1520 1522 1524 1525 1527 1529 1530 1531 1532 1533 1534 1535 1536 1538 1538 1538 1539 1539 1538 1537 1536 1536 1536 1535 1534 1532 1530 1528 1526 1525
1492 1494 1496 1497 1499 1501 1503 1505 1507 1508 1510 1512 1514 1515 1517 1518 1520 1522 1523 1525 1526 1527 1528 1529 1529 1530 1531 1532 1533 1534 1534 1534 1533 1532 1531 1530 1529 1528 1527 1525 1523 1520 1519
1489 1491 1492 1494 1495 1497 1499 1500 1502 1504 1506 1508 1509 1510 1512 1514 1515 1516 1518 1519 1520 1521 1523 1523 1524 1524 1525 1526 1526 1527 1528 1528 1527 1527 1525 1524 1524 1523 1521 1520 1518 1516 1514